KI6IKQ Weather Reports


time (UTC)temp
F
wind
direction
speed
knots
gust
knots
rain 1hr
in
rain 24hr
in
rain mn
in
humidity
%
barometer
mb
20260502234503 75 326 3.5 7.0 0.00 0.00 0.00 53 1009.1
20260502233603 75 325 2.6 7.0 0.00 0.00 0.00 55 1009.2
20260502232703 74 324 2.6 6.1 0.00 0.00 0.00 57 1009.2
20260502231803 73 320 2.6 7.0 0.00 0.00 0.00 56 1009.3
20260502230924 73 315 2.6 7.0 0.00 0.00 0.00 56 1009.5
20260502230003 73 280 1.7 9.6 0.00 0.00 0.00 56 1009.6
20260502225403 73 283 2.6 9.6 0.00 0.00 0.00 56 1009.7
20260502224503 72 289 1.7 7.8 0.00 0.00 0.00 58 1010.0
20260502223603 72 277 1.7 6.1 0.00 0.00 0.00 57 1010.2
20260502222703 71 265 2.6 7.8 0.00 0.00 0.00 57 1010.3
20260502221803 71 270 1.7 8.7 0.00 0.00 0.00 59 1010.4
20260502220903 71 278 2.6 8.7 0.00 0.00 0.00 59 1010.5
20260502220003 71 293 1.7 7.0 0.00 0.00 0.00 58 1010.6
20260502215403 71 297 2.6 7.0 0.00 0.00 0.00 59 1010.8
20260502214503 70 270 2.6 8.7 0.00 0.00 0.00 60 1010.8
20260502213603 71 282 1.7 6.1 0.00 0.00 0.00 59 1010.9
20260502212703 71 280 2.6 7.8 0.00 0.00 0.00 60 1011.1
20260502211803 72 292 1.7 7.0 0.00 0.00 0.00 59 1011.3
20260502210924 72 299 2.6 6.1 0.00 0.00 0.00 58 1011.3
20260502210024 72 283 2.6 9.6 0.00 0.00 0.00 58 1011.4
20260502205424 72 274 2.6 8.7 0.00 0.00 0.00 59 1011.3
20260502204524 72 278 2.6 10.4 0.00 0.00 0.00 58 1011.4
20260502203624 72 293 2.6 7.8 0.00 0.00 0.00 58 1011.4
20260502202703 72 282 2.6 7.8 0.00 0.00 0.00 59 1011.7
20260502201803 71 315 2.6 9.6 0.00 0.00 0.00 59 1011.8
20260502200903 71 301 2.6 8.7 0.00 0.00 0.00 61 1011.7
20260502200003 70 292 3.5 8.7 0.00 0.00 0.00 61 1011.8
20260502195403 70 313 2.6 11.3 0.00 0.00 0.00 63 1011.9
20260502194503 70 327 2.6 11.3 0.00 0.00 0.00 64 1011.9
20260502193603 69 290 2.6 8.7 0.00 0.00 0.00 64 1012.1
20260502192703 69 304 2.6 8.7 0.00 0.00 0.00 63 1012.1
20260502191803 70 302 2.6 7.8 0.00 0.00 0.00 63 1012.2
20260502190903 71 327 3.5 11.3 0.00 0.00 0.00 62 1012.3
20260502190003 71 322 2.6 11.3 0.00 0.00 0.00 60 1012.2
20260502185403 71 320 2.6 12.2 0.00 0.00 0.00 60 1012.2
20260502184503 72 331 3.5 12.2 0.00 0.00 0.00 61 1012.2
20260502183603 71 315 2.6 7.8 0.00 0.00 0.00 61 1012.1
20260502182703 70 338 3.5 9.6 0.00 0.00 0.00 64 1012.1
20260502181803 69 317 2.6 9.6 0.00 0.00 0.00 63 1012.1
20260502180924 69 315 2.6 10.4 0.00 0.00 0.00 65 1012.0
20260502163603 63 299 2.6 10.4 0.00 0.00 0.00 75 1011.9
20260502162703 64 321 2.6 8.7 0.00 0.00 0.00 76 1011.7
20260502161803 63 335 1.7 5.2 0.00 0.00 0.00 77 1011.7
20260502160903 62 329 1.7 7.8 0.00 0.00 0.00 78 1011.6
20260502151803 59 320 1.7 4.3 0.00 0.00 0.00 86 1011.5
20260502150924 58 314 1.7 3.5 0.00 0.00 0.00 87 1011.5
20260502123624 54 326 0.9 1.7 0.00 0.00 0.00 88 1010.4
20260502122724 55 321 0.9 1.7 0.00 0.00 0.00 88 1010.4
20260502121803 55 327 0.9 2.6 0.00 0.00 0.00 88 1010.4
20260502120903 55 322 0.9 2.6 0.00 0.00 0.00 88 1010.4
20260502115403 55 317 0.9 3.5 0.00 0.00 0.00 88 1010.4
20260502113603 55 339 0.9 2.6 0.00 0.00 0.00 88 1010.7
20260502112703 55 329 1.7 3.5 0.00 0.00 0.00 88 1010.7
20260502111824 55 317 0.9 2.6 0.00 0.00 0.00 88 1010.6
20260502110924 54 297 0.9 2.6 0.00 0.00 0.00 88 1010.6
20260502110003 54 318 0.9 1.7 0.00 0.00 0.00 87 1010.7
20260502105403 54 319 0.9 1.7 0.00 0.00 0.00 87 1010.7
20260502104503 55 314 0.9 1.7 0.00 0.00 0.00 87 1010.7
20260502103603 55 330 0.9 2.6 0.00 0.00 0.00 87 1010.8
20260502102703 55 320 0.9 1.7 0.00 0.00 0.00 86 1010.8
20260502101824 55 334 0.9 1.7 0.00 0.00 0.00 86 1010.7
20260502100903 55 318 0.9 2.6 0.00 0.00 0.00 86 1010.8
20260502090903 56 319 0.9 1.7 0.00 0.00 0.00 83 1011.0
20260502070903 60 298 0.9 2.6 0.00 0.00 0.00 75 1011.1
20260502070003 60 299 0.9 3.5 0.00 0.00 0.00 75 1011.1
20260502065403 61 309 0.9 2.6 0.00 0.00 0.00 74 1011.0
20260502064503 61 325 0.9 3.5 0.00 0.00 0.00 74 1011.0
20260502063603 61 322 0.9 3.5 0.00 0.00 0.00 73 1011.0
20260502062703 62 293 0.9 3.5 0.00 0.00 0.00 72 1011.0
20260502061803 62 315 0.9 7.0 0.00 0.00 0.00 72 1011.0
20260502060903 62 312 0.9 3.5 0.00 0.00 0.00 72 1011.0
20260502060003 62 309 0.9 2.6 0.00 0.00 0.00 71 1011.2
20260502055425 63 298 0.9 2.6 0.00 0.00 0.00 71 1011.2
20260502054503 63 295 0.9 3.5 0.00 0.00 0.00 70 1011.1
20260502053603 63 283 0.9 2.6 0.00 0.00 0.00 70 1011.1
20260502052703 63 306 0.9 2.6 0.00 0.00 0.00 70 1011.0
20260502051824 64 309 0.9 2.6 0.00 0.00 0.00 70 1011.2
20260502050924 64 346 0.9 2.6 0.00 0.00 0.00 69 1011.2
20260502050024 65 304 0.9 2.6 0.00 0.00 0.00 68 1011.3
20260502045424 65 283 0.9 2.6 0.00 0.00 0.00 68 1011.2
20260502044524 65 286 0.9 2.6 0.00 0.00 0.00 67 1011.2
20260502043624 66 282 0.9 2.6 0.00 0.00 0.00 65 1011.1
20260502042724 67 286 0.9 2.6 0.00 0.00 0.00 64 1010.9
20260502041824 67 291 0.9 3.5 0.00 0.00 0.00 63 1011.0
20260502040924 68 315 0.9 3.5 0.00 0.00 0.00 62 1010.9
20260502040024 68 316 1.7 3.5 0.00 0.00 0.00 61 1010.7
20260502035403 69 308 0.9 3.5 0.00 0.00 0.00 59 1010.5
20260502034503 70 319 0.9 3.5 0.00 0.00 0.00 58 1010.5
20260502033603 70 315 1.7 3.5 0.00 0.00 0.00 56 1010.4
20260502032703 71 317 1.7 5.2 0.00 0.00 0.00 55 1010.2
20260502031805 72 319 0.9 3.5 0.00 0.00 0.00 52 1010.2
20260502030924 73 318 0.9 3.5 0.00 0.00 0.00 51 1010.1
20260502030024 74 310 0.9 4.3 0.00 0.00 0.00 49 1009.9
20260502025424 76 328 0.9 4.3 0.00 0.00 0.00 49 1009.9
20260502024524 77 306 0.9 2.6 0.00 0.00 0.00 47 1009.9
20260502023624 78 319 0.9 3.5 0.00 0.00 0.00 45 1009.9
20260502022703 79 323 1.7 4.3 0.00 0.00 0.00 45 1009.8
20260502021803 80 294 0.9 3.5 0.00 0.00 0.00 41 1009.8
20260502020903 82 296 1.7 3.5 0.00 0.00 0.00 39 1009.7
20260502020003 83 328 2.6 5.2 0.00 0.00 0.00 46 1009.7
20260502015405 83 330 2.6 5.2 0.00 0.00 0.00 47 1009.7
20260502014503 84 321 1.7 5.2 0.00 0.00 0.00 47 1009.6
20260502013603 84 312 1.7 7.0 0.00 0.00 0.00 38 1009.6
20260502012703 85 311 1.7 5.2 0.00 0.00 0.00 48 1009.5
20260502011803 85 308 2.6 4.3 0.00 0.00 0.00 48 1009.5
20260502010903 85 309 2.6 4.3 0.00 0.00 0.00 47 1009.5
20260502010003 85 319 2.6 5.2 0.00 0.00 0.00 47 1009.6
20260502005403 85 311 2.6 7.8 0.00 0.00 0.00 47 1009.6
20260502004503 84 347 2.6 7.0 0.00 0.00 0.00 46 1009.6
20260502003603 84 336 2.6 7.0 0.00 0.00 0.00 46 1009.7
20260502002703 85 338 2.6 7.0 0.00 0.00 0.00 47 1009.7
20260502001803 85 328 2.6 7.0 0.00 0.00 0.00 48 1009.7
20260502000903 85 315 2.6 7.0 0.00 0.00 0.00 47 1009.9
20260502000003 85 299 2.6 5.2 0.00 0.00 0.00 47 1010.1
20260501235403 85 275 2.6 7.0 0.00 0.00 0.00 43 1010.1